EW4723 Weather Reports


time (UTC)temp
C
wind
direction
speed
KPH
gust
KPH
rain 1hr
cm
rain 24hr
cm
rain mn
cm
humidity
%
barometer
mb
20260505035646 12 28 1.6 6.4 0.00 0.00 0.00 80 1008.8
20260505034857 13 9 1.6 9.7 0.00 0.00 0.00 79 1008.7
20260505034359 13 0 3.2 9.7 0.00 0.00 0.00 78 1008.7
20260505033859 13 17 1.6 14.5 0.00 0.00 0.00 78 1008.6
20260505033359 13 22 3.2 14.5 0.00 0.00 0.00 77 1008.5
20260505032857 13 17 4.8 12.9 0.00 0.00 0.00 77 1008.5
20260505032356 13 19 3.2 12.9 0.00 0.00 0.00 76 1008.4
20260505031858 13 309 3.2 11.3 0.00 0.00 0.00 76 1008.3
20260505031351 13 11 3.2 12.9 0.00 0.00 0.00 75 1008.2
20260505030852 13 5 3.2 12.9 0.00 0.00 0.00 75 1008.2
20260505030350 14 306 3.2 12.9 0.00 0.00 0.00 74 1008.2
20260505025851 14 312 3.2 11.3 0.00 0.00 0.00 73 1008.1
20260505025350 14 327 3.2 14.5 0.00 0.00 0.00 72 1008.1
20260505024849 14 349 3.2 17.7 0.00 0.00 0.00 72 1008.1
20260505024351 15 329 3.2 17.7 0.00 0.00 0.00 72 1008.1
20260505024228 15 293 3.2 22.5 0.00 0.00 0.00 71 1008.1
20260505023351 15 298 4.8 22.5 0.00 0.00 0.00 70 1008.1
20260505023142 15 9 4.8 17.7 0.00 0.00 0.00 69 1008.2
20260505022347 15 17 4.8 14.5 0.00 0.00 0.00 70 1008.2
20260505021845 15 335 4.8 14.5 0.00 0.00 0.00 69 1008.2
20260505021459 15 304 4.8 16.1 0.00 0.00 0.00 68 1008.4
20260505021435 15 309 4.8 16.1 0.00 0.00 0.00 68 1008.2
20260505020344 16 327 4.8 14.5 0.00 0.00 0.00 69 1008.4
20260505015843 16 323 4.8 14.5 0.00 0.00 0.00 68 1008.3
20260505015344 16 188 4.8 14.5 0.00 0.00 0.00 68 1008.5
20260505014837 16 282 4.8 14.5 0.00 0.00 0.00 68 1008.4
20260505014332 16 271 3.2 14.5 0.00 0.00 0.00 67 1008.5
20260505013826 16 25 3.2 20.9 0.00 0.00 0.00 66 1008.5
20260505013610 17 34 4.8 20.9 0.00 0.00 0.00 65 1008.6
20260505013102 17 23 3.2 17.7 0.00 0.00 0.00 63 1008.6
20260505012308 17 110 3.2 14.5 0.00 0.00 0.00 63 1008.6
20260505011803 17 20 3.2 14.5 0.00 0.00 0.00 63 1008.7
20260505011256 17 13 3.2 9.7 0.00 0.00 0.00 64 1008.9
20260505010750 17 338 3.2 12.9 0.00 0.00 0.00 63 1008.9
20260505010245 17 333 3.2 12.9 0.00 0.00 0.00 63 1008.9
20260505005748 18 24 3.2 12.9 0.00 0.00 0.00 63 1009.0
20260505005529 18 316 3.2 12.9 0.00 0.00 0.00 66 1008.9
20260505004726 17 345 1.6 11.3 0.00 0.00 0.00 65 1009.0
20260505004221 17 271 1.6 9.7 0.00 0.00 0.00 65 1008.9
20260505003715 17 261 3.2 9.7 0.00 0.00 0.00 67 1009.0
20260505003208 17 11 3.2 8.0 0.00 0.00 0.00 68 1009.1
20260505002702 17 259 4.8 9.7 0.00 0.00 0.00 67 1009.0
20260505002159 17 300 4.8 12.9 0.00 0.00 0.00 67 1009.0
20260505001956 17 297 4.8 14.5 0.00 0.00 0.00 66 1009.0
20260505001157 17 112 3.2 14.5 0.00 0.00 0.00 66 1009.0
20260505000659 18 309 3.2 6.4 0.00 0.00 0.00 64 1009.0
20260505000159 18 269 3.2 8.0 0.00 0.00 0.00 65 1009.0
20260504235656 18 0 3.2 9.7 0.00 0.00 0.00 64 1009.0
20260504235155 18 9 3.2 14.5 0.00 0.00 0.00 63 1009.0
20260504234657 18 301 3.2 14.5 0.00 0.00 0.00 63 1009.0
20260504234154 18 350 1.6 8.0 0.00 0.00 0.00 68 1009.0
20260504233651 18 265 1.6 9.7 0.00 0.00 0.00 66 1008.9
20260504233151 18 298 3.2 9.7 0.00 0.00 0.00 64 1008.9
20260504232652 18 281 3.2 11.3 0.00 0.00 0.00 65 1008.9
20260504232150 17 342 4.8 14.5 0.00 0.00 0.00 66 1009.0
20260504231647 17 338 4.8 14.5 0.00 0.00 0.00 65 1009.1
20260504231148 17 294 4.8 12.9 0.00 0.00 0.00 64 1009.0
20260504230649 17 276 4.8 16.1 0.00 0.00 0.00 65 1009.1
20260504230147 17 32 4.8 16.1 0.00 0.00 0.00 64 1009.2
20260504225948 18 345 4.8 14.5 0.00 0.00 0.00 63 1009.2
20260504225148 17 280 4.8 14.5 0.00 0.00 0.00 63 1009.3
20260504224646 18 333 4.8 14.5 0.00 0.00 0.00 62 1009.4
20260504224144 17 276 4.8 14.5 0.00 0.00 0.00 63 1009.3
20260504223645 17 26 4.8 12.9 0.00 0.00 0.00 62 1009.4
20260504223441 17 313 4.8 14.5 0.00 0.00 0.00 62 1009.3
20260504222645 18 38 3.2 14.5 0.00 0.00 0.00 60 1009.3
20260504222145 18 296 3.2 9.7 0.00 0.00 0.00 59 1009.5
20260504221944 18 265 4.8 14.5 0.00 0.00 0.00 60 1009.5
20260504221145 18 339 3.2 14.5 0.00 0.00 0.00 59 1009.6
20260504220937 18 288 3.2 12.9 0.00 0.00 0.00 58 1009.5
20260504220144 19 169 4.8 11.3 0.00 0.00 0.00 57 1009.4
20260504215643 19 275 3.2 11.3 0.00 0.00 0.00 56 1009.4
20260504215144 20 332 1.6 6.4 0.00 0.00 0.00 55 1009.4
20260504214641 20 305 1.6 12.9 0.00 0.00 0.00 54 1009.5
20260504214141 20 90 3.2 12.9 0.00 0.00 0.00 55 1009.6
20260504214010 19 297 3.2 11.3 0.00 0.00 0.00 56 1009.7
20260504213711 20 331 3.2 8.0 0.00 0.00 0.00 54 1009.6
20260504212639 18 245 4.8 11.3 0.00 0.00 0.00 55 1009.7
20260504212139 18 329 3.2 9.7 0.00 0.00 0.00 59 1009.8
20260504211640 18 10 3.2 11.3 0.00 0.00 0.00 55 1009.7
20260504211140 19 0 3.2 11.3 0.00 0.00 0.00 53 1009.7
20260504210640 20 304 1.6 9.7 0.00 0.00 0.00 59 1009.7
20260504210138 19 339 3.2 12.9 0.00 0.00 0.00 55 1009.8
20260504205640 19 355 3.2 12.9 0.00 0.00 0.00 54 1009.8
20260504205140 20 265 1.6 6.4 0.00 0.00 0.00 57 1009.8
20260504204639 21 267 1.6 6.4 0.00 0.00 0.00 54 1009.7
20260504204140 22 301 1.6 4.8 0.00 0.00 0.00 49 1009.7
20260504203639 22 35 3.2 11.3 0.00 0.00 0.00 51 1009.7
20260504203430 22 29 3.2 11.3 0.00 0.00 0.00 49 1009.7
20260504202638 21 267 4.8 12.9 0.00 0.00 0.00 47 1009.7
20260504202139 22 276 3.2 12.9 0.00 0.00 0.00 51 1009.7
20260504201638 22 271 1.6 9.7 0.00 0.00 0.00 47 1009.7
20260504201437 22 256 1.6 6.4 0.00 0.00 0.00 51 1009.7
20260504200639 22 28 1.6 6.4 0.00 0.00 0.00 53 1009.7
20260504200139 21 304 3.2 11.3 0.00 0.00 0.00 54 1009.7
20260504195638 21 294 1.6 11.3 0.00 0.00 0.00 49 1009.7
20260504195429 21 277 1.6 6.4 0.00 0.00 0.00 51 1009.7
20260504194636 22 313 1.6 3.2 0.00 0.00 0.00 49 1009.7
20260504194131 21 268 1.6 6.4 0.00 0.00 0.00 51 1009.7
20260504193630 21 267 1.6 9.7 0.00 0.00 0.00 52 1009.7
20260504193128 21 202 1.6 9.7 0.00 0.00 0.00 52 1009.7
20260504192628 21 22 1.6 9.7 0.00 0.00 0.00 57 1009.8
20260504192128 21 271 1.6 9.7 0.00 0.00 0.00 54 1009.8
20260504191627 20 286 1.6 6.4 0.00 0.00 0.00 54 1009.9
20260504191126 21 286 1.6 4.8 0.00 0.00 0.00 55 1009.8
20260504190624 21 323 1.6 4.8 0.00 0.00 0.00 54 1009.7
20260504190123 21 276 1.6 9.7 0.00 0.00 0.00 54 1009.7
20260504185623 21 277 1.6 9.7 0.00 0.00 0.00 54 1009.7
20260504185416 21 295 1.6 8.0 0.00 0.00 0.00 53 1009.7
20260504184918 20 267 1.6 8.0 0.00 0.00 0.00 52 1009.7
20260504184111 20 22 0.0 6.4 0.00 0.00 0.00 55 1009.8
20260504183851 20 299 1.6 6.4 0.00 0.00 0.00 54 1009.8
20260504183059 20 250 0.0 6.4 0.00 0.00 0.00 58 1009.8
20260504182554 19 321 0.0 3.2 0.00 0.00 0.00 56 1009.9
20260504182048 18 322 1.6 6.4 0.00 0.00 0.00 56 1009.9
20260504181541 18 312 1.6 6.4 0.00 0.00 0.00 57 1010.0
20260504181035 18 306 0.0 3.2 0.00 0.00 0.00 57 1010.0
20260504180824 18 310 0.0 1.6 0.00 0.00 0.00 58 1010.0
20260504180023 18 310 0.0 3.2 0.00 0.00 0.00 60 1010.0
20260504175517 18 330 0.0 3.2 0.00 0.00 0.00 63 1010.0
20260504175011 18 265 0.0 1.6 0.00 0.00 0.00 63 1009.9
20260504174505 18 265 0.0 4.8 0.00 0.00 0.00 62 1009.9
20260504173959 18 265 1.6 9.7 0.00 0.00 0.00 61 1009.8
20260504173452 18 254 1.6 9.7 0.00 0.00 0.00 59 1009.9
20260504172947 18 281 1.6 8.0 0.00 0.00 0.00 61 1009.8
20260504172441 17 329 3.2 8.0 0.00 0.00 0.00 60 1009.8
20260504171936 17 312 1.6 8.0 0.00 0.00 0.00 61 1009.8
20260504171429 17 344 1.6 9.7 0.00 0.00 0.00 62 1009.8
20260504170923 17 280 1.6 9.7 0.00 0.00 0.00 64 1009.8
20260504170417 17 287 0.0 6.4 0.00 0.00 0.00 64 1009.9
20260504160305 16 295 0.0 4.8 0.00 0.00 0.00 67 1009.7
20260504151017 15 273 1.6 4.8 0.00 0.00 0.00 68 1009.3
20260504150228 14 329 0.0 3.2 0.00 0.00 0.00 69 1009.4
20260504141218 11 304 0.0 3.2 0.00 0.00 0.00 79 1008.8
20260504140720 11 304 0.0 3.2 0.00 0.00 0.00 79 1008.8
20260504140214 12 304 0.0 4.8 0.00 0.00 0.00 79 1008.8
20260504130653 9 270 0.0 0.0 0.00 0.00 0.00 87 1008.5
20260504130444 9 270 0.0 0.0 0.00 0.00 0.00 88 1008.4
20260504120147 8 270 0.0 0.0 0.00 0.00 0.00 88 1008.5
20260504110629 9 270 0.0 0.0 0.00 0.00 0.00 86 1008.6
20260504110128 9 270 0.0 0.0 0.00 0.00 0.00 86 1008.6
20260504100526 10 270 0.0 0.0 0.00 0.00 0.00 82 1008.5
20260504100313 10 270 0.0 0.0 0.00 0.00 0.00 81 1008.5
20260504081847 11 270 0.0 0.0 0.00 0.00 0.00 71 1008.2
20260504081344 11 270 0.0 0.0 0.00 0.00 0.00 71 1008.2
20260504080841 12 270 0.0 0.0 0.00 0.00 0.00 70 1008.2
20260504080342 12 270 0.0 0.0 0.00 0.00 0.00 70 1008.2
20260504080131 12 270 0.0 0.0 0.00 0.00 0.00 70 1008.2
20260504070331 13 270 0.0 4.8 0.00 0.00 0.00 69 1008.3
20260504060220 14 316 1.6 6.4 0.00 0.00 0.00 59 1008.5
20260504050209 15 290 0.0 0.0 0.00 0.00 0.00 64 1008.7
20260504045707 15 290 0.0 3.2 0.00 0.00 0.00 64 1008.7
20260504045209 15 290 0.0 3.2 0.00 0.00 0.00 64 1008.6
20260504044708 15 334 0.0 0.0 0.00 0.00 0.00 61 1008.7
20260504044208 15 334 0.0 3.2 0.00 0.00 0.00 61 1008.7
20260504043958 15 334 0.0 3.2 0.00 0.00 0.00 60 1008.7
20260504043204 15 334 0.0 3.2 0.00 0.00 0.00 57 1008.7
20260504042704 15 334 0.0 0.0 0.00 0.00 0.00 59 1008.7
20260504042203 16 334 0.0 0.0 0.00 0.00 0.00 60 1008.6
20260504041704 16 334 0.0 0.0 0.00 0.00 0.00 59 1008.6
20260504041204 16 334 0.0 0.0 0.00 0.00 0.00 58 1008.6
20260504040702 16 334 0.0 0.0 0.00 0.00 0.00 59 1008.6
20260504040203 16 334 0.0 1.6 0.00 0.00 0.00 59 1008.6
20260504035949 16 334 0.0 1.6 0.00 0.00 0.00 62 1008.6